Weather History for Mayport NS, FL

Change the Weather History Date:

Wednesday, January 22, 2014

  Actual Average Record
Temperature  
Mean Temperature 42 °F -  
Max Temperature 50 °F 61 °F 77 °F (1999)
Min Temperature 33 °F 46 °F 30 °F (2009)
Degree Days  
Heating Degree Days 24    
Moisture  
Dew Point 22 °F    
Average Humidity 48    
Maximum Humidity 64    
Minimum Humidity 25    
Precipitation  
Precipitation 0.00 in - - ()
Sea Level Pressure  
Sea Level Pressure 30.08 in    
Wind  
Wind Speed 8 mph (WNW)    
Max Wind Speed 13 mph    
Max Gust Speed 20 mph    
Visibility 10 miles    
Events      
Averages and records for this station are not official NWS values.
T = Trace of Precipitation, MM = Missing Value Source: NWS Daily Summary

Daily Weather History Graph

Daily Weather History Graph

Search for Another Location

Airport:

Trip Planner

Search our weather history database for the weather conditions in past years. The results will help you decide how hot, cold, wet, or windy it might be!

Date:

Astronomy

Jan. 22, 2014 Rise Set
Actual Time 7:21 AM EST 5:53 PM EST
Civil Twilight 6:55 AM EST 6:19 PM EST
Nautical Twilight 6:26 AM EST 6:48 PM EST
Astronomical Twilight 5:57 AM EST 7:17 PM EST
Moon 11:54 PM EST (1/22) 10:50 AM EST (1/22)
Length of Visible Light 11h 23m
Length of Day
10h 32m
Waning Gibbous, 65% of the Moon is Illuminated
Jan 22
Waning Gibbous
Jan 24
Last Quarter
Jan 30
New
Feb 6
First Quarter
Feb 14
Full

Hourly Weather History & Observations

Time (EST) Temp. Windchill Dew Point Humidity Pressure Visibility Wind Dir Wind Speed Gust Speed Precip Events Conditions
12:52 AM 45.0 °F 40.1 °F 25.0 °F 46% 29.91 in 10.0 mi WNW 9.2 mph 19.6 mph N/A   Clear
1:52 AM 43.0 °F 37.7 °F 25.0 °F 49% 29.94 in 10.0 mi WNW 9.2 mph 18.4 mph N/A   Clear
2:52 AM 42.1 °F 37.7 °F 26.1 °F 53% 29.96 in 10.0 mi Variable 6.9 mph - N/A   Clear
3:52 AM 37.9 °F 31.5 °F 23.0 °F 55% 29.97 in 10.0 mi NW 9.2 mph 18.4 mph N/A   Clear
4:52 AM 37.0 °F 30.4 °F 24.1 °F 59% 30.00 in 10.0 mi NW 9.2 mph 17.3 mph N/A   Clear
5:52 AM 35.1 °F 28.6 °F 24.1 °F 64% 30.03 in 10.0 mi NW 8.1 mph - N/A   Clear
6:02 AM 35.1 °F 29.3 °F 24.1 °F 64% 30.04 in 10.0 mi NW 6.9 mph - N/A   Clear
6:52 AM 34.0 °F 27.2 °F 21.9 °F 61% 30.06 in 10.0 mi WNW 8.1 mph - N/A   Partly Cloudy
7:52 AM 33.1 °F 26.1 °F 21.0 °F 61% 30.08 in 10.0 mi WNW 8.1 mph 18.4 mph N/A   Partly Cloudy
8:52 AM 34.0 °F 27.2 °F 19.9 °F 56% 30.11 in 10.0 mi WNW 8.1 mph 18.4 mph N/A   Partly Cloudy
9:52 AM 36.0 °F 29.0 °F 18.0 °F 48% 30.13 in 10.0 mi WNW 9.2 mph - N/A   Partly Cloudy
10:52 AM 39.0 °F 33.4 °F 18.0 °F 43% 30.13 in 10.0 mi West 8.1 mph - N/A   Partly Cloudy
11:52 AM 42.1 °F 36.6 °F 19.9 °F 41% 30.13 in 10.0 mi WNW 9.2 mph - N/A   Partly Cloudy
12:52 PM 44.1 °F 37.7 °F 19.0 °F 37% 30.09 in 10.0 mi West 12.7 mph 19.6 mph N/A   Clear
1:52 PM 46.0 °F 41.0 °F 17.1 °F 31% 30.08 in 10.0 mi West 10.4 mph - N/A   Clear
2:52 PM 48.9 °F - 15.1 °F 26% 30.07 in 10.0 mi West 10.4 mph - N/A   Clear
3:52 PM 50.0 °F - 15.1 °F 25% 30.07 in 10.0 mi WNW 8.1 mph - N/A   Clear
4:52 PM 48.9 °F - 15.1 °F 26% 30.09 in 10.0 mi Variable 6.9 mph - N/A   Clear
5:52 PM 46.9 °F - 19.0 °F 33% 30.11 in 10.0 mi West 4.6 mph - N/A   Clear
6:52 PM 42.1 °F - 23.0 °F 47% 30.12 in 10.0 mi Calm Calm - N/A   Clear
7:52 PM 43.0 °F 41.3 °F 26.1 °F 51% 30.15 in 10.0 mi West 3.5 mph - N/A   Clear
8:52 PM 41.0 °F 39.0 °F 28.0 °F 60% 30.17 in 10.0 mi West 3.5 mph - N/A   Clear
9:52 PM 41.0 °F 38.0 °F 27.0 °F 57% 30.19 in 10.0 mi WNW 4.6 mph - N/A   Clear
10:52 PM 41.0 °F 38.0 °F 23.0 °F 49% 30.21 in 10.0 mi West 4.6 mph - N/A   Clear
11:52 PM 41.0 °F 38.0 °F 21.9 °F 47% 30.20 in 10.0 mi Variable 4.6 mph - N/A   Clear